Regional Weather Roundup
Issued by NWS

Home | Current Version | Previous Version | Graphics & Text | Print | Product List | Glossary On
Versions: 1 2 3 4 5 6 7 8 9 10 11 12 13 14 15 16 17 18 19 20 21 22 23 24 25 26 27 28 29 30 31 32 33 34 35 36 37 38 39 40 41 42 43 44 45 46 47 48 49 50
000
ASUS45 KTFX 300310
RWRMT
MONTANA REGIONAL WEATHER ROUNDUP
NATIONAL WEATHER SERVICE GREAT FALLS MT
900 PM MDT WED MAR 29 2017

NOTE: "FAIR" INDICATES FEW OR NO CLOUDS BELOW 12000 FEET WITH NO
SIGNIFICANT WEATHER AND/OR OBSTRUCTIONS TO VISIBILITY.

MTZ001>007-043-300400-
WEST OF THE DIVIDE

CITY           SKY/WX    TMP DP  RH WIND       PRES   REMARKS
KALISPELL      LGT RAIN  44  41  89 SW8       29.83F
MISSOULA       CLOUDY    48  41  76 S8        29.90F
BUTTE          LGT RAIN  44  36  73 W5        29.93S
MULLAN PASS    LGT RAIN  34  34 100 SW8       29.85F VSB 1/2 WCI  27
ANACONDA         N/A     45  36  70 S9        29.91S
DEER LODGE       N/A     45  37  76 S6        29.92F
EUREKA           N/A     46  37  71 SE13      29.80F
HAMILTON         N/A     45  39  81 S15       29.92S
$$

MTZ008-052>055-300400-
SOUTHWEST MONTANA

CITY           SKY/WX    TMP DP  RH WIND       PRES   REMARKS
BOZEMAN        CLOUDY    50  36  58 W5        29.91S
DILLON         CLOUDY    43  37  79 SW9       29.92F
W YELLOWSTONE  MIX PCPN  34  32  93 S5        30.04F
ENNIS          CLOUDY    41  37  87 SE16G23   30.00F FOG
THREE FORKS      N/A     48  -7  10 SW12      29.91F
$$

MTZ009-010-012-014-046-048-049-054-300400-
EAST SLOPES AND CENTRAL MONTANA

CITY           SKY/WX    TMP DP  RH WIND       PRES   REMARKS
CUT BANK       CLOUDY    46  33  60 W13       29.74S
GREAT FALLS    PTCLDY    50  34  54 SW18      29.78S
MALMSTROM AFB  CLOUDY    51  35  55 SW21      29.78F
HELENA         CLOUDY    50  39  66 CALM      29.86F
AUGUSTA          N/A     45  32  61 SW9       29.78F
BOWMANS CRNR   MOCLDY    45  35  68 SW22      29.78F
CHOTEAU          N/A     48  34  57 W10       29.77F
CONRAD           N/A     47  36  65 CALM      29.80S
FAIRFIELD        N/A     47  32  55 S9        29.76F
POWER          MOCLDY    47  34  60 SW13      29.76F
RAYNESFORD     MOCLDY    53  34  49 SW20G29   29.79S
$$

MTZ011-013-016-021-045-047-050-051-300400-
NORTH CENTRAL MONTANA

CITY           SKY/WX    TMP DP  RH WIND       PRES   REMARKS
HAVRE          CLOUDY    50  38  63 E6        29.74F
LEWISTOWN      CLOUDY    50  33  52 W9        29.80F
N BAR RANCH    CLOUDY    48  30  49 CALM      29.84F
CHINOOK          N/A     52  36  54 CALM      29.76F
DENTON         MOCLDY    51  33  51 W7        29.76S
FORT BENTON      N/A     55  36  47 MISG      29.77S
GEYSER         CLOUDY    49  33  53 W14       29.78F
GRASS RANGE    CLOUDY    48  34  60 S6        29.77F
JUDITH GAP     MOCLDY    48  34  57 SW13      29.83S
STANFORD       MOCLDY    49  33  53 SW7       29.80F
WINIFRED       MOCLDY    51  32  48 CALM      29.78F
$$

MTZ017>020-022>027-061-062-300400-
NORTHEAST MONTANA

CITY           SKY/WX    TMP DP  RH WIND       PRES   REMARKS
GLASGOW        CLOUDY    49  33  54 SE6       29.80F
JORDAN           N/A     50  33  52 SE5       29.80F
SIDNEY         CLOUDY    44  30  57 NW7       29.85S
WOLF POINT     CLOUDY    47  35  63 CALM      29.83S
MALTA          CLOUDY    52  32  46 S7        29.78S
PLENTYWOOD       N/A     48  28  46 CALM      29.83S
POPLAR           N/A     52  32  46 S6        29.84S
$$

MTZ028>42-056>058-300400-
SOUTHCENTRAL AND SOUTHEAST MONTANA

CITY           SKY/WX    TMP DP  RH WIND       PRES   REMARKS
BAKER          CLEAR     39  30  70 SE5       29.88F
BILLINGS       CLOUDY    54  36  50 CALM      29.83S
LIVINGSTON     CLOUDY    49  32  52 W21       29.88R
MILES CITY     CLOUDY    50  29  44 E6        29.84S
BIG TIMBER     CLOUDY    50  34  53 W33G41    29.85S
EKALAKA          N/A     42  29  60 SE3       29.88F
FORSYTH          N/A     50  34  53 E3        29.83S
HARLOWTON      CLOUDY    50  37  60 W32G38    29.81F
LAUREL           N/A     53  30  41 CALM      29.84R
$$

REGIONAL REPORTS...DAKOTAS

CITY           SKY/WX    TMP DP  RH WIND       PRES   REMARKS
WILLISTON      CLEAR     44  32  62 W8        29.84F
MINOT          PTCLDY    45  42  89 S5        29.85S
DICKINSON      CLOUDY    42  29  59 W3        29.85R
BEACH            N/A     39  30  70 SW3       29.89S
TIOGA            N/A     43  32  65 S9        29.86S
WATFORD CITY     N/A     41  34  75 CALM      29.85S
BISMARCK       CLOUDY    57  36  45 S12       29.90F
GRAND FORKS    PTCLDY    49  38  65 S18       29.97F
FARGO          CLEAR     47  38  71 S18G28    30.05S
BUFFALO SD       N/A     50  38  63 SE16G22   29.83S
RAPID CITY     CLEAR     41  37  86 SE3       29.94S
$$

REGIONAL REPORTS...WYOMING/IDAHO/WASHINGTON

CITY           SKY/WX    TMP DP  RH WIND       PRES   REMARKS
GILLETTE       CLEAR     40  27  59 CALM      29.87F HAZE
SHERIDAN       CLEAR     44  33  65 E5        29.85S
BUFFALO WY     CLEAR     44  31  60 W7        29.88S
CODY           CLOUDY    50  29  44 SW9G21    29.91R
YELLOWSTONE LA   N/A     31  31 100 CALM      30.06F
IDAHO FALLS    CLOUDY    51  36  56 S12       30.00F
SALMON         CLOUDY    43  41  93 CALM      29.95F
BOISE          LGT RAIN  51  47  86 E12       29.97F
SPOKANE        CLOUDY    48  43  82 S18       29.82F
$$

REGIONAL REPORTS...ALBERTA

CITY           SKY/WX    TMP DP  RH WIND       PRES   REMARKS
EDMONTON       MOCLDY    37  30  75 E6        29.70S
CALGARY        MOCLDY    41  28  60 E5        29.63F
LETHBRIDGE     MOCLDY    41  28  60 SW9       29.68F
MEDICINE HAT   CLOUDY    52  34  50 SE8       29.70F
WATERTON GATE    N/A     43  32  65 SW16G24     N/A
CARDSTON         N/A     48  28  46 W12G21      N/A
MILK RIVER       N/A     48  32  53 SW10        N/A
ONEFOUR          N/A     46  34  61 SE3         N/A
$$

REGIONAL REPORTS...SASKATCHEWAN

CITY           SKY/WX    TMP DP  RH WIND       PRES   REMARKS
SWIFT CURRENT  CLOUDY    45  27  49 S7        29.76S
REGINA         CLOUDY    46  30  53 VRB2      29.78S
SASKATOON      MOCLDY    36  34  93 NE10      29.81R WCI  28
CYPRESS HILLS    N/A     43  27  52 S5          N/A
VAL MARIE        N/A     46  30  53 SE8         N/A
ASSINIBOIA       N/A     34  34 100 NE3         N/A
$$



USA.gov is the U.S. government's official web portal to all federal, state and local government web resources and services.